GSAT0221 (GALILEO 25)

Last updated on Fri Sep 04 2026 00:02:48 GMT+0000 (Coordinated Universal Time)

1 43564U 18060A 26246.08059453 -.00000082 00000+0 00000+0 0 9990 2 43564 57.1381 339.6782 0004460 268.0003 91.9918 1.70475994 50491
UTC large
Height (km)
Speed (km/s)
/
Latitude / Longitude
Inclination (degrees)
Orbital Period (minutes)
Azimuth
Elevation
Range (km)
Doppler Factor

Next 0 passes for location: London (51.5072 / 0.1276)

No passes found over London.
GSAT0221 (GALILEO 25)